Time,TemperatureF,DewpointF,PressureIn,WindDirection,WindDirectionDegrees,WindSpeedMPH,WindSpeedGustMPH,Humidity,HourlyPrecipIn,Conditions,Clouds,dailyrainin,SoftwareType,DateUTC
2013-07-06 00:02:00,60.0,57.0,30.29,North,359,0.0,0.0,89,0.00,,,-99.99,,2013-07-06 04:02:00,
2013-07-06 00:12:00,60.0,56.0,30.28,North,359,0.0,0.0,88,0.00,,,-99.99,,2013-07-06 04:12:00,
2013-07-06 00:22:00,60.0,56.0,30.28,North,359,0.0,0.0,88,0.00,,,-99.99,,2013-07-06 04:22:00,
2013-07-06 00:33:00,60.0,56.0,30.28,North,359,0.0,0.0,88,0.00,,,-99.99,,2013-07-06 04:33:00,
2013-07-06 00:43:00,61.0,57.0,30.28,North,359,0.0,0.0,88,0.00,,,-99.99,,2013-07-06 04:43:00,
2013-07-06 00:53:00,61.0,57.0,30.28,North,359,0.0,0.0,87,0.00,,,-99.99,,2013-07-06 04:53:00,
2013-07-06 01:02:00,61.0,57.0,30.28,North,359,0.0,0.0,87,0.00,,,-99.99,,2013-07-06 05:02:00,
2013-07-06 01:12:00,61.0,57.0,30.28,North,359,0.0,0.0,87,0.00,,,-99.99,,2013-07-06 05:12:00,
2013-07-06 01:22:00,61.0,57.0,30.27,North,359,0.0,0.0,87,0.00,,,-99.99,,2013-07-06 05:22:00,
2013-07-06 01:33:00,61.0,57.0,30.27,North,359,0.0,0.0,87,0.00,,,-99.99,,2013-07-06 05:33:00,
2013-07-06 01:42:00,61.0,57.0,30.27,North,359,0.0,0.0,86,0.00,,,-99.99,,2013-07-06 05:42:00,
2013-07-06 01:53:00,61.0,57.0,30.27,North,359,0.0,0.0,86,0.00,,,-99.99,,2013-07-06 05:53:00,
2013-07-06 02:02:00,61.0,57.0,30.26,North,359,0.0,0.0,86,0.00,,,-99.99,,2013-07-06 06:02:00,
2013-07-06 02:12:00,61.0,57.0,30.26,North,359,0.0,0.0,86,0.00,,,-99.99,,2013-07-06 06:12:00,
2013-07-06 02:22:00,61.0,57.0,30.26,North,359,0.0,0.0,86,0.00,,,-99.99,,2013-07-06 06:22:00,
2013-07-06 02:34:00,61.0,57.0,30.26,North,359,0.0,0.0,86,0.00,,,-99.99,,2013-07-06 06:34:00,
2013-07-06 02:43:00,61.0,57.0,30.26,North,359,0.0,0.0,86,0.00,,,-99.99,,2013-07-06 06:43:00,
2013-07-06 02:53:00,61.0,57.0,30.26,North,359,0.0,0.0,86,0.00,,,-99.99,,2013-07-06 06:53:00,
2013-07-06 03:02:00,61.0,57.0,30.25,North,359,0.0,0.0,86,0.00,,,-99.99,,2013-07-06 07:02:00,
2013-07-06 03:12:00,61.0,57.0,30.25,North,359,0.0,0.0,86,0.00,,,-99.99,,2013-07-06 07:12:00,
2013-07-06 03:22:00,61.0,57.0,30.25,North,359,0.0,0.0,86,0.00,,,-99.99,,2013-07-06 07:22:00,
2013-07-06 03:33:00,61.0,57.0,30.25,North,359,0.0,0.0,86,0.00,,,-99.99,,2013-07-06 07:33:00,
2013-07-06 03:44:00,61.0,57.0,30.25,North,359,0.0,0.0,86,0.00,,,-99.99,,2013-07-06 07:44:00,
2013-07-06 03:52:00,61.0,57.0,30.25,North,359,0.0,0.0,86,0.00,,,-99.99,,2013-07-06 07:52:00,
2013-07-06 04:02:00,61.0,57.0,30.25,North,359,0.0,0.0,86,0.00,,,-99.99,,2013-07-06 08:02:00,
2013-07-06 04:12:00,61.0,57.0,30.25,North,359,0.0,0.0,86,0.00,,,-99.99,,2013-07-06 08:12:00,
2013-07-06 04:43:00,61.0,56.0,30.24,North,359,0.0,0.0,85,0.06,,,-99.99,,2013-07-06 08:43:00,
2013-07-06 04:54:00,61.0,56.0,30.24,North,359,0.0,0.0,85,0.03,,,-99.99,,2013-07-06 08:54:00,
2013-07-06 05:02:00,61.0,56.0,30.24,North,359,0.0,0.0,85,0.03,,,-99.99,,2013-07-06 09:02:00,
2013-07-06 05:11:00,61.0,56.0,30.24,North,359,0.0,0.0,85,0.03,,,-99.99,,2013-07-06 09:11:00,
2013-07-06 05:22:00,61.0,56.0,30.24,North,359,0.0,0.0,85,0.03,,,-99.99,,2013-07-06 09:22:00,
2013-07-06 05:33:00,61.0,56.0,30.24,North,359,0.0,0.0,85,0.03,,,-99.99,,2013-07-06 09:33:00,
2013-07-06 05:53:00,61.0,56.0,30.24,North,359,0.0,0.0,85,0.03,,,-99.99,,2013-07-06 09:53:00,
2013-07-06 06:02:00,61.0,56.0,30.24,North,359,0.0,0.0,85,0.03,,,-99.99,,2013-07-06 10:02:00,
2013-07-06 06:11:00,61.0,56.0,30.24,North,359,0.0,0.0,85,0.03,,,-99.99,,2013-07-06 10:11:00,
2013-07-06 06:33:00,60.0,55.0,30.25,North,359,0.0,0.0,84,0.01,,,-99.99,,2013-07-06 10:33:00,
2013-07-06 06:43:00,60.0,55.0,30.25,North,359,0.0,0.0,84,0.01,,,-99.99,,2013-07-06 10:43:00,
2013-07-06 06:53:00,60.0,55.0,30.25,North,359,0.0,0.0,84,0.00,,,-99.99,,2013-07-06 10:53:00,
2013-07-06 07:01:00,60.0,55.0,30.25,North,359,0.0,0.0,84,0.00,,,-99.99,,2013-07-06 11:01:00,
2013-07-06 07:11:00,60.0,55.0,30.25,North,359,0.0,0.0,84,0.00,,,-99.99,,2013-07-06 11:11:00,
2013-07-06 07:22:00,60.0,55.0,30.25,North,359,0.0,0.0,84,0.00,,,-99.99,,2013-07-06 11:22:00,
2013-07-06 07:33:00,60.0,55.0,30.25,North,359,0.0,0.0,84,0.00,,,-99.99,,2013-07-06 11:33:00,
2013-07-06 13:16:00,64.0,60.0,30.27,North,359,0.0,0.0,88,0.01,,,-99.99,,2013-07-06 17:16:00,
2013-07-06 13:44:00,63.0,60.0,30.28,North,359,0.0,0.0,91,0.01,,,-99.99,,2013-07-06 17:44:00,
2013-07-06 14:02:00,62.0,61.0,30.27,North,359,0.0,0.0,95,0.01,,,-99.99,,2013-07-06 18:02:00,
2013-07-06 14:13:00,62.0,61.0,30.27,North,359,0.0,0.0,95,0.01,,,-99.99,,2013-07-06 18:13:00,
2013-07-06 14:26:00,62.0,61.0,30.26,North,359,0.0,0.0,95,0.06,,,-99.99,,2013-07-06 18:26:00,
2013-07-06 14:39:00,63.0,61.0,30.26,North,359,0.0,0.0,92,0.05,,,-99.99,,2013-07-06 18:39:00,
2013-07-06 14:56:00,62.0,61.0,30.27,North,359,0.0,0.0,95,0.06,,,-99.99,,2013-07-06 18:56:00,
2013-07-06 15:02:00,63.0,61.0,30.26,North,359,0.0,0.0,92,0.05,,,-99.99,,2013-07-06 19:02:00,
2013-07-06 15:31:00,63.0,61.0,30.26,North,359,0.0,0.0,92,0.05,,,-99.99,,2013-07-06 19:31:00,
2013-07-06 16:16:00,64.0,62.0,30.23,North,359,0.0,0.0,94,0.00,,,-99.99,,2013-07-06 20:16:00,
2013-07-06 16:25:00,64.0,62.0,30.23,North,359,0.0,0.0,93,0.00,,,-99.99,,2013-07-06 20:25:00,
2013-07-06 16:33:00,64.0,62.0,30.23,North,359,0.0,0.0,93,0.00,,,-99.99,,2013-07-06 20:33:00,
2013-07-06 16:47:00,65.0,63.0,30.22,North,359,0.0,0.0,93,0.00,,,-99.99,,2013-07-06 20:47:00,
2013-07-06 16:55:00,65.0,63.0,30.22,North,359,0.0,0.0,93,0.00,,,-99.99,,2013-07-06 20:55:00,
2013-07-06 17:01:00,65.0,63.0,30.22,North,359,0.0,0.0,93,0.00,,,-99.99,,2013-07-06 21:01:00,
2013-07-06 17:14:00,65.0,64.0,30.22,North,359,0.0,0.0,95,0.00,,,-99.99,,2013-07-06 21:14:00,
2013-07-06 17:21:00,65.0,63.0,30.22,North,359,0.0,0.0,93,0.00,,,-99.99,,2013-07-06 21:21:00,
2013-07-06 17:35:00,66.0,64.0,30.21,North,359,0.0,0.0,94,0.00,,,-99.99,,2013-07-06 21:35:00,
2013-07-06 17:45:00,66.0,65.0,30.22,North,359,0.0,0.0,95,0.00,,,-99.99,,2013-07-06 21:45:00,
2013-07-06 17:55:00,66.0,65.0,30.22,North,359,0.0,0.0,95,0.00,,,-99.99,,2013-07-06 21:55:00,
2013-07-06 18:24:00,65.0,64.0,30.21,North,359,0.0,0.0,96,0.00,,,-99.99,,2013-07-06 22:24:00,
2013-07-06 18:34:00,65.0,64.0,30.21,North,359,0.0,0.0,96,0.00,,,-99.99,,2013-07-06 22:34:00,
2013-07-06 18:55:00,64.0,63.0,30.20,North,359,0.0,0.0,96,0.00,,,-99.99,,2013-07-06 22:55:00,
2013-07-06 19:02:00,64.0,63.0,30.19,North,359,0.0,0.0,95,0.00,,,-99.99,,2013-07-06 23:02:00,
2013-07-06 19:12:00,63.0,62.0,30.20,North,359,0.0,0.0,95,0.03,,,-99.99,,2013-07-06 23:12:00,
2013-07-06 19:33:00,63.0,61.0,30.21,North,359,0.0,0.0,94,0.23,,,-99.99,,2013-07-06 23:33:00,
2013-07-06 19:53:00,63.0,61.0,30.22,North,359,0.0,0.0,94,0.37,,,-99.99,,2013-07-06 23:53:00,
2013-07-06 19:59:00,63.0,61.0,30.23,North,359,0.0,0.0,92,0.29,,,-99.99,,2013-07-06 23:59:00,
2013-07-06 20:17:00,63.0,61.0,30.22,North,359,0.0,0.0,94,0.37,,,-99.99,,2013-07-07 00:17:00,
2013-07-06 20:26:00,63.0,61.0,30.23,North,359,0.0,0.0,92,0.29,,,-99.99,,2013-07-07 00:26:00,
2013-07-06 20:33:00,63.0,61.0,30.23,North,359,0.0,0.0,92,0.29,,,-99.99,,2013-07-07 00:33:00,
2013-07-06 20:43:00,63.0,60.0,30.23,North,359,0.0,0.0,91,0.30,,,-99.99,,2013-07-07 00:43:00,
2013-07-06 21:15:00,63.0,60.0,30.23,North,359,0.0,0.0,91,0.30,,,-99.99,,2013-07-07 01:15:00,
2013-07-06 21:24:00,63.0,60.0,30.23,North,359,0.0,0.0,91,0.30,,,-99.99,,2013-07-07 01:24:00,
2013-07-06 21:33:00,63.0,60.0,30.23,North,359,0.0,0.0,91,0.30,,,-99.99,,2013-07-07 01:33:00,